Weather in Spiridonovka

Russia / Samara Oblast     53°06′22″N   50°38′35″E
temp.,
°C
wind,
m/s
gust,
m/s
humid.,
%
clouds,
%
prec.,
mm/h
press.,
hPa
HPBL,
m
21 january, fri
fri2101:00−17s229979 0.1 102221
04:00−16sse229985 0.1 102233
07:00−15s2597100 0.1 102292
10:00−14sse259770 0.2 102394
13:00−11s369566 0.0 1022169
16:00−12se36966 0.0 102294
19:00−17sse349966 0.0 102258
22:00−16se3710090 0.0 1022100
22 january, sat
sat2201:00−12se41196100 0.1 1022226
04:00−10sse41194100 0.1 1021297
07:00−9se51294100 0.0 1021306
10:00−7sse61492100 0.0 1022458
13:00−6sse61492100 0.1 1022580
16:00−6sse61393100 0.6 1023528
19:00−6sse61389100 0.1 1025395
22:00−6sse51190100 0.1 1025368
23 january, sun
sun2301:00−7se51290100 0.0 1027381
04:00−8se51191100 0.0 1028310
07:00−9se41089100 0.0 1029279
10:00−9se4987100 0.0 1031290
13:00−8se4884100 0.0 1032280
16:00−9ese4885100 0.0 1033241
19:00−12e3790100 0.0 103590
22:00−10ese3887100 0.0 1036174
24 january, mon
mon2401:00−11ese3888100 0.0 1037182
04:00−12e3791100 0.0 1037120
07:00−13e3692100 0.0 1038110
10:00−12e3888100 0.0 1039170
13:00−10ese3783100 0.0 1038231
16:00−10ese3885100 0.0 1038194
19:00−13ese3688100 0.0 1038101
22:00−15e2492100 0.0 103848
25 january, tue
tue2501:00−19ese2295100 0.0 103813
04:00−20se2295100 0.0 103817
07:00−23ese229771 0.0 103711
10:00−21ese119698 0.0 103727
13:00−13se248391 0.0 1036112
16:00−14se229099 0.0 103613
19:00−19sse229566 0.0 103615
22:00−21sse22975 0.0 103613